• In Czech Republic
  • List of Countries
  • For 7 days
  • Water Temperature
  • Satellite Maps
  • Weather Map
  • Weather Widgets
  • user-avatar
    Login

    Hourly Weather Panotla

    Today, 24 November, Friday

    Time Temperature Precipitation Wind Pressure Humidity
    00:00 +9°C° 0 mm 1 mps 576 mmHg 76%
    01:00 +8°C° 0 mm 1 mps 575 mmHg 76%
    02:00 +8°C° 0 mm 1 mps 575 mmHg 75%
    03:00 +8°C° 0 mm 1 mps 575 mmHg 74%
    04:00 +7°C° 0 mm 1 mps 575 mmHg 73%
    05:00 +7°C° 0 mm 1 mps 574 mmHg 72%
    06:00 +9°C° 0 mm 1 mps 575 mmHg 64%
    07:00 +11°C° 0 mm 1 mps 577 mmHg 56%
    08:00 +13°C° 0 mm 1 mps 578 mmHg 48%
    09:00 +14°C° 0 mm 1 mps 578 mmHg 41%
    10:00 +16°C° 0 mm 2 mps 579 mmHg 35%
    11:00 +18°C° 0 mm 2 mps 579 mmHg 28%
    12:00 +18°C° 0 mm 2 mps 579 mmHg 29%
    13:00 +19°C° 0 mm 2 mps 578 mmHg 29%
    14:00 +19°C° 0 mm 3 mps 578 mmHg 29%
    15:00 +17°C° 0 mm 2 mps 577 mmHg 37%
    16:00 +16°C° 0 mm 2 mps 577 mmHg 45%
    17:00 +14°C° 0 mm 1 mps 576 mmHg 53%
    18:00 +13°C° 0 mm 1 mps 576 mmHg 58%
    19:00 +12°C° 0 mm 1 mps 576 mmHg 63%
    20:00 +11°C° 0 mm 1 mps 576 mmHg 69%
    21:00 +11°C° 0 mm 1 mps 576 mmHg 69%
    22:00 +11°C° 0 mm 1 mps 576 mmHg 70%
    23:00 +10°C° 0 mm 1 mps 576 mmHg 71%

    Tomorrow, 25 November, Saturday

    Time Temperature Precipitation Wind Pressure Humidity
    00:00 +10°C° 0 mm 1 mps 576 mmHg 70%
    01:00 +10°C° 0 mm 1 mps 575 mmHg 70%
    02:00 +9°C° 0 mm 1 mps 575 mmHg 69%
    03:00 +9°C° 0 mm 1 mps 575 mmHg 67%
    04:00 +9°C° 0 mm 1 mps 575 mmHg 66%
    05:00 +8°C° 0 mm 1 mps 575 mmHg 64%
    06:00 +10°C° 0 mm 1 mps 576 mmHg 56%
    07:00 +12°C° 0 mm 1 mps 577 mmHg 48%
    08:00 +14°C° 0 mm 1 mps 578 mmHg 41%
    09:00 +16°C° 0 mm 1 mps 579 mmHg 35%
    10:00 +18°C° 0 mm 2 mps 580 mmHg 30%
    11:00 +20°C° 0 mm 2 mps 581 mmHg 24%
    12:00 +21°C° 0 mm 2 mps 580 mmHg 24%
    13:00 +21°C° 0 mm 2 mps 580 mmHg 24%
    14:00 +21°C° 0 mm 2 mps 579 mmHg 24%
    15:00 +19°C° 0 mm 2 mps 579 mmHg 32%
    16:00 +17°C° 0 mm 2 mps 578 mmHg 40%
    17:00 +15°C° 0 mm 2 mps 577 mmHg 47%
    18:00 +14°C° 0 mm 2 mps 577 mmHg 52%
    19:00 +13°C° 0 mm 1 mps 578 mmHg 57%
    20:00 +12°C° 0 mm 1 mps 578 mmHg 62%
    21:00 +12°C° 0 mm 1 mps 578 mmHg 63%
    22:00 +12°C° 0 mm 1 mps 578 mmHg 63%
    23:00 +11°C° 0 mm 1 mps 578 mmHg 64%

    Day after tomorrow, 26 November, Sunday

    Time Temperature Precipitation Wind Pressure Humidity
    00:00 +11°C° 0 mm 1 mps 577 mmHg 62%
    01:00 +9°C° 0 mm 2 mps 577 mmHg 61%
    02:00 +9°C° 0 mm 2 mps 577 mmHg 59%
    03:00 +8°C° 0 mm 2 mps 577 mmHg 56%
    04:00 +8°C° 0 mm 2 mps 577 mmHg 53%
    05:00 +8°C° 0 mm 2 mps 576 mmHg 50%
    06:00 +9°C° 0 mm 3 mps 578 mmHg 44%
    07:00 +11°C° 0 mm 3 mps 579 mmHg 38%
    08:00 +13°C° 0 mm 3 mps 581 mmHg 32%
    09:00 +15°C° 0 mm 4 mps 581 mmHg 30%
    10:00 +17°C° 0 mm 4 mps 582 mmHg 28%
    11:00 +19°C° 0 mm 5 mps 582 mmHg 25%
    12:00 +19°C° 0 mm 4 mps 582 mmHg 26%
    13:00 +19°C° 0 mm 4 mps 581 mmHg 27%
    14:00 +19°C° 0 mm 4 mps 580 mmHg 27%
    15:00 +17°C° 0 mm 3 mps 580 mmHg 34%
    16:00 +14°C° 0 mm 3 mps 579 mmHg 41%
    17:00 +12°C° 0 mm 3 mps 578 mmHg 48%
    18:00 +11°C° 0 mm 3 mps 578 mmHg 56%
    19:00 +10°C° 0 mm 3 mps 578 mmHg 63%
    20:00 +9°C° 0 mm 3 mps 578 mmHg 71%
    21:00 +8°C° 0 mm 3 mps 578 mmHg 72%
    22:00 +8°C° 0 mm 2 mps 578 mmHg 72%
    23:00 +7°C° 0 mm 2 mps 578 mmHg 73%

    27 November, Monday

    Time Temperature Precipitation Wind Pressure Humidity
    00:00 +7°C° 0 mm 2 mps 577 mmHg 73%
    01:00 +7°C° 0 mm 2 mps 577 mmHg 73%
    02:00 +6°C° 0 mm 2 mps 576 mmHg 73%
    03:00 +6°C° 0 mm 2 mps 576 mmHg 73%
    04:00 +6°C° 0 mm 2 mps 576 mmHg 74%
    05:00 +6°C° 0 mm 2 mps 576 mmHg 75%
    06:00 +8°C° 0 mm 2 mps 577 mmHg 69%
    07:00 +9°C° 0 mm 2 mps 578 mmHg 63%
    08:00 +12°C° 0 mm 2 mps 579 mmHg 56%
    09:00 +14°C° 0 mm 2 mps 580 mmHg 50%
    10:00 +16°C° 0 mm 2 mps 580 mmHg 43%
    11:00 +18°C° 0 mm 2 mps 581 mmHg 36%
    12:00 +19°C° 0 mm 2 mps 580 mmHg 34%
    13:00 +19°C° 0 mm 2 mps 580 mmHg 33%
    14:00 +20°C° 0 mm 2 mps 579 mmHg 31%
    15:00 +18°C° 0 mm 2 mps 578 mmHg 39%
    16:00 +16°C° 0 mm 2 mps 577 mmHg 47%
    17:00 +14°C° 0 mm 2 mps 577 mmHg 54%
    18:00 +13°C° 0 mm 1 mps 577 mmHg 60%
    19:00 +12°C° 0 mm 1 mps 577 mmHg 66%
    20:00 +12°C° 0 mm 1 mps 577 mmHg 71%
    21:00 +11°C° 0 mm 1 mps 577 mmHg 74%
    22:00 +11°C° 0 mm 1 mps 576 mmHg 76%
    23:00 +10°C° 0 mm 1 mps 576 mmHg 78%

    28 November, Tuesday

    Time Temperature Precipitation Wind Pressure Humidity
    00:00 +10°C° 0 mm 1 mps 576 mmHg 78%
    01:00 +9°C° 0 mm 1 mps 575 mmHg 78%
    02:00 +9°C° 0 mm 1 mps 575 mmHg 78%
    03:00 +9°C° 0 mm 1 mps 575 mmHg 76%
    04:00 +9°C° 0 mm 1 mps 575 mmHg 74%
    05:00 +8°C° 0 mm 1 mps 574 mmHg 72%
    06:00 +10°C° 0 mm 1 mps 576 mmHg 63%
    07:00 +12°C° 0 mm 1 mps 577 mmHg 53%
    08:00 +14°C° 0 mm 1 mps 578 mmHg 44%
    09:00 +16°C° 0 mm 1 mps 579 mmHg 38%
    10:00 +18°C° 0 mm 2 mps 579 mmHg 32%
    11:00 +20°C° 0 mm 2 mps 579 mmHg 25%
    12:00 +20°C° 0 mm 2 mps 579 mmHg 26%
    13:00 +21°C° 0 mm 2 mps 579 mmHg 27%
    14:00 +21°C° 0 mm 2 mps 578 mmHg 27%
    15:00 +19°C° 0 mm 2 mps 578 mmHg 36%
    16:00 +18°C° 0 mm 1 mps 577 mmHg 44%
    17:00 +15°C° 0 mm 1 mps 576 mmHg 52%
    18:00 +14°C° 0 mm 1 mps 576 mmHg 57%
    19:00 +12°C° 0 mm 0 mps 577 mmHg 62%
    20:00 +12°C° 0 mm 0 mps 577 mmHg 67%
    21:00 +11°C° 0 mm 0 mps 577 mmHg 67%
    22:00 +12°C° 0 mm 1 mps 576 mmHg 67%
    23:00 +11°C° 0 mm 1 mps 576 mmHg 67%

    29 November, Wednesday

    Time Temperature Precipitation Wind Pressure Humidity
    00:00 +11°C° 0 mm 1 mps 576 mmHg 67%
    01:00 +11°C° 0 mm 1 mps 576 mmHg 66%
    02:00 +10°C° 0 mm 1 mps 575 mmHg 66%
    03:00 +10°C° 0 mm 1 mps 576 mmHg 66%
    04:00 +10°C° 0 mm 1 mps 576 mmHg 67%
    05:00 +9°C° 0 mm 1 mps 576 mmHg 68%
    06:00 +10°C° 0 mm 2 mps 577 mmHg 62%
    07:00 +13°C° 0 mm 2 mps 578 mmHg 57%
    08:00 +15°C° 0 mm 2 mps 580 mmHg 51%
    09:00 +16°C° 0 mm 2 mps 580 mmHg 44%
    10:00 +18°C° 0 mm 2 mps 581 mmHg 36%
    11:00 +20°C° 0 mm 2 mps 581 mmHg 28%
    12:00 +20°C° 0 mm 2 mps 581 mmHg 29%
    13:00 +20°C° 0 mm 3 mps 581 mmHg 30%
    14:00 +21°C° 0 mm 3 mps 580 mmHg 31%
    15:00 +19°C° 0 mm 3 mps 580 mmHg 41%
    16:00 +17°C° 0 mm 2 mps 579 mmHg 50%
    17:00 +15°C° 0 mm 2 mps 579 mmHg 60%
    18:00 +14°C° 0 mm 2 mps 579 mmHg 65%
    19:00 +13°C° 0 mm 2 mps 579 mmHg 71%
    20:00 +12°C° 0 mm 2 mps 579 mmHg 76%
    21:00 +12°C° 0 mm 2 mps 578 mmHg 78%
    22:00 +10°C° 0 mm 2 mps 578 mmHg 81%
    23:00 +9°C° 0 mm 2 mps 578 mmHg 83%
    Show more